Year,Month,Day,Hour,Minute,Value (Times are PST for temperature in C)
2006,08,31,00,00,14.80
2006,08,31,00,01,14.80
2006,08,31,00,02,14.80
2006,08,31,00,03,14.80
2006,08,31,00,04,14.70
2006,08,31,00,05,14.70
2006,08,31,00,06,14.70
2006,08,31,00,07,14.80
2006,08,31,00,08,14.80
2006,08,31,00,09,14.80
2006,08,31,00,10,14.80
2006,08,31,00,11,14.80
2006,08,31,00,12,14.80
2006,08,31,00,13,14.80
2006,08,31,00,14,14.80
2006,08,31,00,15,14.80
2006,08,31,00,16,14.80
2006,08,31,00,17,14.80
2006,08,31,00,18,14.80
2006,08,31,00,19,14.80
2006,08,31,00,20,14.80
2006,08,31,00,21,14.80
2006,08,31,00,22,14.80
2006,08,31,00,23,14.80
2006,08,31,00,24,14.80
2006,08,31,00,25,14.80
2006,08,31,00,26,14.80
2006,08,31,00,27,14.80
2006,08,31,00,28,14.80
2006,08,31,00,29,14.80
2006,08,31,00,30,14.80
2006,08,31,00,31,14.80
2006,08,31,00,32,14.80
2006,08,31,00,33,14.70
2006,08,31,00,34,14.70
2006,08,31,00,35,14.70
2006,08,31,00,36,14.70
2006,08,31,00,37,14.70
2006,08,31,00,38,14.70
2006,08,31,00,39,14.60
2006,08,31,00,40,14.60
2006,08,31,00,41,14.60
2006,08,31,00,42,14.60
2006,08,31,00,43,14.60
2006,08,31,00,44,14.50
2006,08,31,00,45,14.50
2006,08,31,00,46,14.50
2006,08,31,00,47,14.50
2006,08,31,00,48,14.50
2006,08,31,00,49,14.50
2006,08,31,00,50,14.40
2006,08,31,00,51,14.40
2006,08,31,00,52,14.40
2006,08,31,00,53,14.40
2006,08,31,00,54,14.40
2006,08,31,00,55,14.40
2006,08,31,00,56,14.30
2006,08,31,00,57,14.30
2006,08,31,00,58,14.30
2006,08,31,00,59,14.30
2006,08,31,01,00,14.30
2006,08,31,01,01,14.30
2006,08,31,01,02,14.30
2006,08,31,01,03,14.20
2006,08,31,01,04,14.20
2006,08,31,01,05,14.20
2006,08,31,01,06,14.20
2006,08,31,01,07,14.20
2006,08,31,01,08,14.20
2006,08,31,01,09,14.20
2006,08,31,01,10,14.20
2006,08,31,01,11,14.20
2006,08,31,01,12,14.20
2006,08,31,01,13,14.20
2006,08,31,01,14,14.10
2006,08,31,01,15,14.10
2006,08,31,01,16,14.10
2006,08,31,01,17,14.00
2006,08,31,01,18,14.00
2006,08,31,01,19,14.00
2006,08,31,01,20,14.00
2006,08,31,01,21,14.00
2006,08,31,01,22,13.90
2006,08,31,01,23,13.90
2006,08,31,01,24,13.90
2006,08,31,01,25,13.90
2006,08,31,01,26,13.90
2006,08,31,01,27,13.90
2006,08,31,01,28,13.80
2006,08,31,01,29,13.80
2006,08,31,01,30,13.80
2006,08,31,01,31,13.80
2006,08,31,01,32,13.80
2006,08,31,01,33,13.70
2006,08,31,01,34,13.70
2006,08,31,01,35,13.70
2006,08,31,01,36,13.70
2006,08,31,01,37,13.70
2006,08,31,01,38,13.70
2006,08,31,01,39,13.70
2006,08,31,01,40,13.60
2006,08,31,01,41,13.60
2006,08,31,01,42,13.60
2006,08,31,01,43,13.60
2006,08,31,01,44,13.50
2006,08,31,01,45,13.50
2006,08,31,01,46,13.50
2006,08,31,01,47,13.50
2006,08,31,01,48,13.40
2006,08,31,01,49,13.40
2006,08,31,01,50,13.40
2006,08,31,01,51,13.40
2006,08,31,01,52,13.30
2006,08,31,01,53,13.30
2006,08,31,01,54,13.30
2006,08,31,01,55,13.30
2006,08,31,01,56,13.30
2006,08,31,01,57,13.30
2006,08,31,01,58,13.30
2006,08,31,01,59,13.30
2006,08,31,02,00,13.20
2006,08,31,02,01,13.20
2006,08,31,02,02,13.20
2006,08,31,02,03,13.20
2006,08,31,02,04,13.20
2006,08,31,02,05,13.10
2006,08,31,02,06,13.10
2006,08,31,02,07,13.10
2006,08,31,02,08,13.10
2006,08,31,02,09,13.10
2006,08,31,02,10,13.10
2006,08,31,02,11,13.00
2006,08,31,02,12,13.00
2006,08,31,02,13,13.00
2006,08,31,02,14,13.00
2006,08,31,02,15,13.00
2006,08,31,02,16,13.00
2006,08,31,02,17,13.00
2006,08,31,02,18,13.00
2006,08,31,02,19,13.00
2006,08,31,02,20,13.00
2006,08,31,02,21,12.90
2006,08,31,02,22,12.90
2006,08,31,02,23,12.90
2006,08,31,02,24,12.90
2006,08,31,02,25,12.90
2006,08,31,02,26,12.90
2006,08,31,02,27,12.90
2006,08,31,02,28,12.90
2006,08,31,02,29,12.90
2006,08,31,02,30,12.90
2006,08,31,02,31,12.80
2006,08,31,02,32,12.80
2006,08,31,02,33,12.80
2006,08,31,02,34,12.80
2006,08,31,02,35,12.80
2006,08,31,02,36,12.80
2006,08,31,02,37,12.80
2006,08,31,02,38,12.80
2006,08,31,02,39,12.80
2006,08,31,02,40,12.80
2006,08,31,02,41,12.80
2006,08,31,02,42,12.80
2006,08,31,02,43,12.80
2006,08,31,02,44,12.80
2006,08,31,02,45,12.80
2006,08,31,02,46,12.80
2006,08,31,02,47,12.80
2006,08,31,02,48,12.80
2006,08,31,02,49,12.80
2006,08,31,02,50,12.80
2006,08,31,02,51,12.70
2006,08,31,02,52,12.70
2006,08,31,02,53,12.70
2006,08,31,02,54,12.70
2006,08,31,02,55,12.70
2006,08,31,02,56,12.70
2006,08,31,02,57,12.60
2006,08,31,02,58,12.60
2006,08,31,02,59,12.60
2006,08,31,03,00,12.60
2006,08,31,03,01,12.60
2006,08,31,03,02,12.50
2006,08,31,03,03,12.50
2006,08,31,03,04,12.50
2006,08,31,03,05,12.50
2006,08,31,03,06,12.40
2006,08,31,03,07,12.40
2006,08,31,03,08,12.40
2006,08,31,03,09,12.30
2006,08,31,03,10,12.30
2006,08,31,03,11,12.30
2006,08,31,03,12,12.30
2006,08,31,03,13,12.30
2006,08,31,03,14,12.20
2006,08,31,03,15,12.20
2006,08,31,03,16,12.20
2006,08,31,03,17,12.20
2006,08,31,03,18,12.10
2006,08,31,03,19,12.10
2006,08,31,03,20,12.10
2006,08,31,03,21,12.00
2006,08,31,03,22,12.00
2006,08,31,03,23,12.00
2006,08,31,03,24,12.00
2006,08,31,03,25,11.90
2006,08,31,03,26,11.90
2006,08,31,03,27,11.90
2006,08,31,03,28,11.90
2006,08,31,03,29,11.80
2006,08,31,03,30,11.80
2006,08,31,03,31,11.80
2006,08,31,03,32,11.80
2006,08,31,03,33,11.80
2006,08,31,03,34,11.70
2006,08,31,03,35,11.70
2006,08,31,03,36,11.70
2006,08,31,03,37,11.60
2006,08,31,03,38,11.60
2006,08,31,03,39,11.60
2006,08,31,03,40,11.60
2006,08,31,03,41,11.60
2006,08,31,03,42,11.60
2006,08,31,03,43,11.50
2006,08,31,03,44,11.40
2006,08,31,03,45,11.40
2006,08,31,03,46,11.40
2006,08,31,03,47,11.40
2006,08,31,03,48,11.40
2006,08,31,03,49,11.30
2006,08,31,03,50,11.30
2006,08,31,03,51,11.30
2006,08,31,03,52,11.30
2006,08,31,03,53,11.20
2006,08,31,03,54,11.20
2006,08,31,03,55,11.20
2006,08,31,03,56,11.20
2006,08,31,03,57,11.10
2006,08,31,03,58,11.10
2006,08,31,03,59,11.10
2006,08,31,04,00,11.10
2006,08,31,04,01,11.10
2006,08,31,04,02,11.10
2006,08,31,04,03,11.10
2006,08,31,04,04,11.10
2006,08,31,04,05,11.10
2006,08,31,04,06,11.10
2006,08,31,04,07,11.10
2006,08,31,04,08,11.10
2006,08,31,04,09,11.10
2006,08,31,04,10,11.10
2006,08,31,04,11,11.00
2006,08,31,04,12,10.90
2006,08,31,04,13,10.90
2006,08,31,04,14,10.90
2006,08,31,04,15,10.90
2006,08,31,04,16,10.90
2006,08,31,04,17,10.90
2006,08,31,04,18,10.90
2006,08,31,04,19,10.90
2006,08,31,04,20,10.90
2006,08,31,04,21,10.90
2006,08,31,04,22,10.90
2006,08,31,04,23,10.90
2006,08,31,04,24,10.90
2006,08,31,04,25,10.90
2006,08,31,04,26,10.90
2006,08,31,04,27,10.90
2006,08,31,04,28,10.80
2006,08,31,04,29,10.80
2006,08,31,04,30,10.80
2006,08,31,04,31,10.80
2006,08,31,04,32,10.80
2006,08,31,04,33,10.70
2006,08,31,04,34,10.70
2006,08,31,04,35,10.70
2006,08,31,04,36,10.70
2006,08,31,04,37,10.60
2006,08,31,04,38,10.60
2006,08,31,04,39,10.60
2006,08,31,04,40,10.60
2006,08,31,04,41,10.60
2006,08,31,04,42,10.60
2006,08,31,04,43,10.60
2006,08,31,04,44,10.60
2006,08,31,04,45,10.50
2006,08,31,04,46,10.40
2006,08,31,04,47,10.40
2006,08,31,04,48,10.40
2006,08,31,04,49,10.40
2006,08,31,04,50,10.40
2006,08,31,04,51,10.40
2006,08,31,04,52,10.30
2006,08,31,04,53,10.30
2006,08,31,04,54,10.30
2006,08,31,04,55,10.20
2006,08,31,04,56,10.20
2006,08,31,04,57,10.20
2006,08,31,04,58,10.20
2006,08,31,04,59,10.10
2006,08,31,05,00,10.10
2006,08,31,05,01,10.10
2006,08,31,05,02,10.10
2006,08,31,05,03,10.10
2006,08,31,05,04,10.10
2006,08,31,05,05,10.10
2006,08,31,05,06,10.10
2006,08,31,05,07,10.10
2006,08,31,05,08,10.10
2006,08,31,05,09,10.10
2006,08,31,05,10,10.10
2006,08,31,05,11,10.10
2006,08,31,05,12,10.00
2006,08,31,05,13,9.90
2006,08,31,05,14,9.90
2006,08,31,05,15,9.90
2006,08,31,05,16,9.90
2006,08,31,05,17,9.90
2006,08,31,05,18,9.90
2006,08,31,05,19,9.90
2006,08,31,05,20,9.90
2006,08,31,05,21,9.90
2006,08,31,05,22,9.90
2006,08,31,05,23,9.90
2006,08,31,05,24,9.90
2006,08,31,05,25,9.80
2006,08,31,05,26,9.80
2006,08,31,05,27,9.80
2006,08,31,05,28,9.80
2006,08,31,05,29,9.80
2006,08,31,05,30,9.70
2006,08,31,05,31,9.70
2006,08,31,05,32,9.70
2006,08,31,05,33,9.70
2006,08,31,05,34,9.70
2006,08,31,05,35,9.70
2006,08,31,05,36,9.70
2006,08,31,05,37,9.70
2006,08,31,05,38,9.70
2006,08,31,05,39,9.60
2006,08,31,05,40,9.60
2006,08,31,05,41,9.60
2006,08,31,05,42,9.60
2006,08,31,05,43,9.60
2006,08,31,05,44,9.50
2006,08,31,05,45,9.50
2006,08,31,05,46,9.50
2006,08,31,05,47,9.50
2006,08,31,05,48,9.50
2006,08,31,05,49,9.50
2006,08,31,05,50,9.50
2006,08,31,05,51,9.50
2006,08,31,05,52,9.40
2006,08,31,05,53,9.40
2006,08,31,05,54,9.40
2006,08,31,05,55,9.40
2006,08,31,05,56,9.40
2006,08,31,05,57,9.40
2006,08,31,05,58,9.40
2006,08,31,05,59,9.40
2006,08,31,06,00,9.40
2006,08,31,06,01,9.40
2006,08,31,06,02,9.40
2006,08,31,06,03,9.40
2006,08,31,06,04,9.40
2006,08,31,06,05,9.30
2006,08,31,06,06,9.30
2006,08,31,06,07,9.30
2006,08,31,06,08,9.30
2006,08,31,06,09,9.30
2006,08,31,06,10,9.30
2006,08,31,06,11,9.30
2006,08,31,06,12,9.30
2006,08,31,06,13,9.30
2006,08,31,06,14,9.30
2006,08,31,06,15,9.30
2006,08,31,06,16,9.30
2006,08,31,06,17,9.30
2006,08,31,06,18,9.30
2006,08,31,06,19,9.30
2006,08,31,06,20,9.30
2006,08,31,06,21,9.30
2006,08,31,06,22,9.30
2006,08,31,06,23,9.30
2006,08,31,06,24,9.30
2006,08,31,06,25,9.30
2006,08,31,06,26,9.30
2006,08,31,06,27,9.30
2006,08,31,06,28,9.30
2006,08,31,06,29,9.30
2006,08,31,06,30,9.40
2006,08,31,06,31,9.40
2006,08,31,06,32,9.40
2006,08,31,06,33,9.40
2006,08,31,06,34,9.40
2006,08,31,06,35,9.40
2006,08,31,06,36,9.40
2006,08,31,06,37,9.40
2006,08,31,06,38,9.40
2006,08,31,06,39,9.40
2006,08,31,06,40,9.40
2006,08,31,06,41,9.40
2006,08,31,06,42,9.40
2006,08,31,06,43,9.40
2006,08,31,06,44,9.40
2006,08,31,06,45,9.40
2006,08,31,06,46,9.30
2006,08,31,06,47,9.30
2006,08,31,06,48,9.30
2006,08,31,06,49,9.30
2006,08,31,06,50,9.30
2006,08,31,06,51,9.30
2006,08,31,06,52,9.30
2006,08,31,06,53,9.30
2006,08,31,06,54,9.30
2006,08,31,06,55,9.30
2006,08,31,06,56,9.30
2006,08,31,06,57,9.20
2006,08,31,06,58,9.20
2006,08,31,06,59,9.20
2006,08,31,07,00,9.20
2006,08,31,07,01,9.20
2006,08,31,07,02,9.20
2006,08,31,07,03,9.20
2006,08,31,07,04,9.20
2006,08,31,07,05,9.20
2006,08,31,07,06,9.20
2006,08,31,07,07,9.20
2006,08,31,07,08,9.20
2006,08,31,07,09,9.30
2006,08,31,07,10,9.30
2006,08,31,07,11,9.30
2006,08,31,07,12,9.30
2006,08,31,07,13,9.30
2006,08,31,07,14,9.40
2006,08,31,07,15,9.40
2006,08,31,07,16,9.40
2006,08,31,07,17,9.40
2006,08,31,07,18,9.40
2006,08,31,07,19,9.50
2006,08,31,07,20,9.50
2006,08,31,07,21,9.50
2006,08,31,07,22,9.50
2006,08,31,07,23,9.50
2006,08,31,07,24,9.60
2006,08,31,07,25,9.60
2006,08,31,07,26,9.60
2006,08,31,07,27,9.70
2006,08,31,07,28,9.70
2006,08,31,07,29,9.70
2006,08,31,07,30,9.70
2006,08,31,07,31,9.70
2006,08,31,07,32,9.80
2006,08,31,07,33,9.80
2006,08,31,07,34,9.80
2006,08,31,07,35,9.90
2006,08,31,07,36,9.90
2006,08,31,07,37,9.90
2006,08,31,07,38,9.90
2006,08,31,07,39,9.90
2006,08,31,07,40,9.90
2006,08,31,07,41,9.90
2006,08,31,07,42,9.90
2006,08,31,07,43,9.90
2006,08,31,07,44,9.90
2006,08,31,07,45,10.00
2006,08,31,07,46,10.10
2006,08,31,07,47,10.10
2006,08,31,07,48,10.10
2006,08,31,07,49,10.10
2006,08,31,07,50,10.10
2006,08,31,07,51,10.20
2006,08,31,07,52,10.20
2006,08,31,07,53,10.20
2006,08,31,07,54,10.30
2006,08,31,07,55,10.30
2006,08,31,07,56,10.30
2006,08,31,07,57,10.40
2006,08,31,07,58,10.40
2006,08,31,07,59,10.50
2006,08,31,08,00,10.60
2006,08,31,08,01,10.60
2006,08,31,08,02,10.60
2006,08,31,08,03,10.70
2006,08,31,08,04,10.70
2006,08,31,08,05,10.80
2006,08,31,08,06,10.90
2006,08,31,08,07,10.90
2006,08,31,08,08,10.90
2006,08,31,08,09,11.00
2006,08,31,08,10,11.10
2006,08,31,08,11,11.10
2006,08,31,08,12,11.10
2006,08,31,08,13,11.20
2006,08,31,08,14,11.20
2006,08,31,08,15,11.30
2006,08,31,08,16,11.30
2006,08,31,08,17,11.40
2006,08,31,08,18,11.40
2006,08,31,08,19,11.40
2006,08,31,08,20,11.50
2006,08,31,08,21,11.60
2006,08,31,08,22,11.60
2006,08,31,08,23,11.70
2006,08,31,08,24,11.80
2006,08,31,08,25,11.80
2006,08,31,08,26,11.90
2006,08,31,08,27,12.00
2006,08,31,08,28,12.10
2006,08,31,08,29,12.10
2006,08,31,08,30,12.20
2006,08,31,08,31,12.30
2006,08,31,08,32,12.30
2006,08,31,08,33,12.40
2006,08,31,08,34,12.50
2006,08,31,08,35,12.50
2006,08,31,08,36,12.60
2006,08,31,08,37,12.70
2006,08,31,08,38,12.80
2006,08,31,08,39,12.80
2006,08,31,08,40,12.90
2006,08,31,08,41,13.00
2006,08,31,08,42,13.00
2006,08,31,08,43,13.10
2006,08,31,08,44,13.10
2006,08,31,08,45,13.20
2006,08,31,08,46,13.20
2006,08,31,08,47,13.20
2006,08,31,08,48,13.30
2006,08,31,08,49,13.30
2006,08,31,08,50,13.30
2006,08,31,08,51,13.30
2006,08,31,08,52,13.40
2006,08,31,08,53,13.40
2006,08,31,08,54,13.50
2006,08,31,08,55,13.50
2006,08,31,08,56,13.60
2006,08,31,08,57,13.70
2006,08,31,08,58,13.70
2006,08,31,08,59,13.80
2006,08,31,09,00,13.80
2006,08,31,09,01,13.90
2006,08,31,09,02,14.00
2006,08,31,09,03,14.10
2006,08,31,09,04,14.20
2006,08,31,09,05,14.20
2006,08,31,09,06,14.30
2006,08,31,09,07,14.30
2006,08,31,09,08,14.40
2006,08,31,09,09,14.40
2006,08,31,09,10,14.40
2006,08,31,09,11,14.50
2006,08,31,09,12,14.50
2006,08,31,09,13,14.50
2006,08,31,09,14,14.50
2006,08,31,09,15,14.60
2006,08,31,09,16,14.60
2006,08,31,09,17,14.60
2006,08,31,09,18,14.60
2006,08,31,09,19,14.60
2006,08,31,09,20,14.60
2006,08,31,09,21,14.60
2006,08,31,09,22,14.60
2006,08,31,09,23,14.70
2006,08,31,09,24,14.70
2006,08,31,09,25,14.70
2006,08,31,09,26,14.80
2006,08,31,09,27,14.80
2006,08,31,09,28,14.80
2006,08,31,09,29,14.80
2006,08,31,09,30,14.80
2006,08,31,09,31,14.80
2006,08,31,09,32,14.80
2006,08,31,09,33,14.80
2006,08,31,09,34,14.80
2006,08,31,09,35,14.80
2006,08,31,09,36,14.80
2006,08,31,09,37,14.90
2006,08,31,09,38,14.90
2006,08,31,09,39,14.90
2006,08,31,09,40,14.90
2006,08,31,09,41,15.00
2006,08,31,09,42,15.00
2006,08,31,09,43,15.10
2006,08,31,09,44,15.10
2006,08,31,09,45,15.20
2006,08,31,09,46,15.30
2006,08,31,09,47,15.30
2006,08,31,09,48,15.30
2006,08,31,09,49,15.40
2006,08,31,09,50,15.40
2006,08,31,09,51,15.40
2006,08,31,09,52,15.40
2006,08,31,09,53,15.40
2006,08,31,09,54,15.40
2006,08,31,09,55,15.50
2006,08,31,09,56,15.50
2006,08,31,09,57,15.50
2006,08,31,09,58,15.50
2006,08,31,09,59,15.60
2006,08,31,10,00,15.60
2006,08,31,10,01,15.60
2006,08,31,10,02,15.70
2006,08,31,10,03,15.70
2006,08,31,10,04,15.70
2006,08,31,10,05,15.70
2006,08,31,10,06,15.60
2006,08,31,10,07,15.50
2006,08,31,10,08,15.50
2006,08,31,10,09,15.40
2006,08,31,10,10,15.40
2006,08,31,10,11,15.30
2006,08,31,10,12,15.30
2006,08,31,10,13,15.40
2006,08,31,10,14,15.40
2006,08,31,10,15,15.40
2006,08,31,10,16,15.40
2006,08,31,10,17,15.40
2006,08,31,10,18,15.50
2006,08,31,10,19,15.50
2006,08,31,10,20,15.50
2006,08,31,10,21,15.60
2006,08,31,10,22,15.60
2006,08,31,10,23,15.70
2006,08,31,10,24,15.70
2006,08,31,10,25,15.80
2006,08,31,10,26,15.80
2006,08,31,10,27,15.80
2006,08,31,10,28,15.70
2006,08,31,10,29,15.70
2006,08,31,10,30,15.70
2006,08,31,10,31,15.70
2006,08,31,10,32,15.70
2006,08,31,10,33,15.80
2006,08,31,10,34,15.80
2006,08,31,10,35,15.80
2006,08,31,10,36,15.80
2006,08,31,10,37,15.80
2006,08,31,10,38,15.90
2006,08,31,10,39,16.00
2006,08,31,10,40,16.10
2006,08,31,10,41,16.20
2006,08,31,10,42,16.30
2006,08,31,10,43,16.40
2006,08,31,10,44,16.40
2006,08,31,10,45,16.40
2006,08,31,10,46,16.50
2006,08,31,10,47,16.60
2006,08,31,10,48,16.60
2006,08,31,10,49,16.40
2006,08,31,10,50,16.30
2006,08,31,10,51,16.20
2006,08,31,10,52,16.20
2006,08,31,10,53,16.10
2006,08,31,10,54,16.00
2006,08,31,10,55,15.90
2006,08,31,10,56,15.80
2006,08,31,10,57,15.80
2006,08,31,10,58,15.70
2006,08,31,10,59,15.80
2006,08,31,11,00,15.80
2006,08,31,11,01,15.80
2006,08,31,11,02,15.90
2006,08,31,11,03,16.00
2006,08,31,11,04,16.20
2006,08,31,11,05,16.20
2006,08,31,11,06,16.30
2006,08,31,11,07,16.30
2006,08,31,11,08,16.40
2006,08,31,11,09,16.50
2006,08,31,11,10,16.60
2006,08,31,11,11,16.60
2006,08,31,11,12,16.60
2006,08,31,11,13,16.40
2006,08,31,11,14,16.40
2006,08,31,11,15,16.30
2006,08,31,11,16,16.20
2006,08,31,11,17,16.10
2006,08,31,11,18,16.00
2006,08,31,11,19,15.90
2006,08,31,11,20,15.90
2006,08,31,11,21,15.90
2006,08,31,11,22,15.90
2006,08,31,11,23,15.80
2006,08,31,11,24,15.80
2006,08,31,11,25,15.80
2006,08,31,11,26,15.80
2006,08,31,11,27,15.90
2006,08,31,11,28,15.90
2006,08,31,11,29,15.80
2006,08,31,11,30,15.80
2006,08,31,11,31,15.80
2006,08,31,11,32,15.80
2006,08,31,11,33,15.80
2006,08,31,11,34,15.90
2006,08,31,11,35,15.90
2006,08,31,11,36,15.90
2006,08,31,11,37,15.90
2006,08,31,11,38,15.80
2006,08,31,11,39,15.80
2006,08,31,11,40,15.80
2006,08,31,11,41,15.90
2006,08,31,11,42,16.00
2006,08,31,11,43,16.10
2006,08,31,11,44,16.10
2006,08,31,11,45,16.20
2006,08,31,11,46,16.30
2006,08,31,11,47,16.40
2006,08,31,11,48,16.30
2006,08,31,11,49,16.30
2006,08,31,11,50,16.30
2006,08,31,11,51,16.40
2006,08,31,11,52,16.40
2006,08,31,11,53,16.40
2006,08,31,11,54,16.60
2006,08,31,11,55,16.70
2006,08,31,11,56,16.80
2006,08,31,11,57,16.80
2006,08,31,11,58,16.80
2006,08,31,11,59,16.80
2006,08,31,12,00,16.80
2006,08,31,12,01,16.90
2006,08,31,12,02,16.90
2006,08,31,12,03,17.00
2006,08,31,12,04,17.00
2006,08,31,12,05,17.00
2006,08,31,12,06,17.10
2006,08,31,12,07,17.10
2006,08,31,12,08,17.10
2006,08,31,12,09,17.10
2006,08,31,12,10,17.00
2006,08,31,12,11,16.90
2006,08,31,12,12,16.80
2006,08,31,12,13,16.70
2006,08,31,12,14,16.70
2006,08,31,12,15,16.60
2006,08,31,12,16,16.50
2006,08,31,12,17,16.40
2006,08,31,12,18,16.40
2006,08,31,12,19,16.40
2006,08,31,12,20,16.40
2006,08,31,12,21,16.30
2006,08,31,12,22,16.30
2006,08,31,12,23,16.40
2006,08,31,12,24,16.40
2006,08,31,12,25,16.50
2006,08,31,12,26,16.70
2006,08,31,12,27,16.70
2006,08,31,12,28,16.70
2006,08,31,12,29,16.70
2006,08,31,12,30,16.70
2006,08,31,12,31,16.80
2006,08,31,12,32,16.90
2006,08,31,12,33,16.90
2006,08,31,12,34,17.00
2006,08,31,12,35,17.00
2006,08,31,12,36,17.10
2006,08,31,12,37,17.00
2006,08,31,12,38,16.90
2006,08,31,12,39,16.80
2006,08,31,12,40,16.70
2006,08,31,12,41,16.70
2006,08,31,12,42,16.70
2006,08,31,12,43,16.70
2006,08,31,12,44,16.70
2006,08,31,12,45,16.80
2006,08,31,12,46,16.90
2006,08,31,12,47,16.90
2006,08,31,12,48,16.90
2006,08,31,12,49,16.90
2006,08,31,12,50,16.90
2006,08,31,12,51,17.00
2006,08,31,12,52,17.00
2006,08,31,12,53,17.10
2006,08,31,12,54,17.20
2006,08,31,12,55,17.20
2006,08,31,12,56,17.10
2006,08,31,12,57,17.10
2006,08,31,12,58,17.20
2006,08,31,12,59,17.30
2006,08,31,13,00,17.30
2006,08,31,13,01,17.30
2006,08,31,13,02,17.30
2006,08,31,13,03,17.40
2006,08,31,13,04,17.40
2006,08,31,13,05,17.40
2006,08,31,13,06,17.40
2006,08,31,13,07,17.30
2006,08,31,13,08,17.30
2006,08,31,13,09,17.40
2006,08,31,13,10,17.50
2006,08,31,13,11,17.50
2006,08,31,13,12,17.60
2006,08,31,13,13,17.50
2006,08,31,13,14,17.50
2006,08,31,13,15,17.50
2006,08,31,13,16,17.50
2006,08,31,13,17,17.50
2006,08,31,13,18,17.40
2006,08,31,13,19,17.40
2006,08,31,13,20,17.40
2006,08,31,13,21,17.50
2006,08,31,13,22,17.50
2006,08,31,13,23,17.60
2006,08,31,13,24,17.80
2006,08,31,13,25,17.90
2006,08,31,13,26,18.00
2006,08,31,13,27,18.20
2006,08,31,13,28,18.30
2006,08,31,13,29,18.50
2006,08,31,13,30,18.60
2006,08,31,13,31,18.60
2006,08,31,13,32,18.70
2006,08,31,13,33,18.70
2006,08,31,13,34,18.70
2006,08,31,13,35,18.70
2006,08,31,13,36,18.60
2006,08,31,13,37,18.50
2006,08,31,13,38,18.40
2006,08,31,13,39,18.30
2006,08,31,13,40,18.40
2006,08,31,13,41,18.40
2006,08,31,13,42,18.50
2006,08,31,13,43,18.50
2006,08,31,13,44,18.60
2006,08,31,13,45,18.70
2006,08,31,13,46,18.80
2006,08,31,13,47,18.90
2006,08,31,13,48,18.80
2006,08,31,13,49,18.70
2006,08,31,13,50,18.60
2006,08,31,13,51,18.50
2006,08,31,13,52,18.30
2006,08,31,13,53,18.20
2006,08,31,13,54,18.10
2006,08,31,13,55,17.90
2006,08,31,13,56,17.90
2006,08,31,13,57,17.90
2006,08,31,13,58,17.90
2006,08,31,13,59,17.90
2006,08,31,14,00,17.80
2006,08,31,14,01,17.70
2006,08,31,14,02,17.70
2006,08,31,14,03,17.60
2006,08,31,14,04,17.60
2006,08,31,14,05,17.60
2006,08,31,14,06,17.60
2006,08,31,14,07,17.60
2006,08,31,14,08,17.60
2006,08,31,14,09,17.60
2006,08,31,14,10,17.60
2006,08,31,14,11,17.60
2006,08,31,14,12,17.70
2006,08,31,14,13,17.80
2006,08,31,14,14,17.90
2006,08,31,14,15,17.90
2006,08,31,14,16,18.00
2006,08,31,14,17,18.10
2006,08,31,14,18,18.10
2006,08,31,14,19,18.20
2006,08,31,14,20,18.20
2006,08,31,14,21,18.20
2006,08,31,14,22,18.20
2006,08,31,14,23,18.20
2006,08,31,14,24,18.20
2006,08,31,14,25,18.20
2006,08,31,14,26,18.20
2006,08,31,14,27,18.30
2006,08,31,14,28,18.50
2006,08,31,14,29,18.60
2006,08,31,14,30,18.70
2006,08,31,14,31,18.60
2006,08,31,14,32,18.60
2006,08,31,14,33,18.60
2006,08,31,14,34,18.50
2006,08,31,14,35,18.60
2006,08,31,14,36,18.60
2006,08,31,14,37,18.60
2006,08,31,14,38,18.70
2006,08,31,14,39,18.80
2006,08,31,14,40,18.80
2006,08,31,14,41,18.90
2006,08,31,14,42,19.00
2006,08,31,14,43,19.10
2006,08,31,14,44,19.20
2006,08,31,14,45,19.30
2006,08,31,14,46,19.40
2006,08,31,14,47,19.40
2006,08,31,14,48,19.50
2006,08,31,14,49,19.50
2006,08,31,14,50,19.60
2006,08,31,14,51,19.60
2006,08,31,14,52,19.60
2006,08,31,14,53,19.70
2006,08,31,14,54,19.70
2006,08,31,14,55,19.70
2006,08,31,14,56,19.80
2006,08,31,14,57,19.70
2006,08,31,14,58,19.60
2006,08,31,14,59,19.30
2006,08,31,15,00,19.20
2006,08,31,15,01,19.10
2006,08,31,15,02,19.00
2006,08,31,15,03,19.00
2006,08,31,15,04,19.10
2006,08,31,15,05,19.20
2006,08,31,15,06,19.30
2006,08,31,15,07,19.30
2006,08,31,15,08,19.30
2006,08,31,15,09,19.30
2006,08,31,15,10,19.40
2006,08,31,15,11,19.40
2006,08,31,15,12,19.50
2006,08,31,15,13,19.50
2006,08,31,15,14,19.60
2006,08,31,15,15,19.50
2006,08,31,15,16,19.50
2006,08,31,15,17,19.40
2006,08,31,15,18,19.30
2006,08,31,15,19,19.30
2006,08,31,15,20,19.30
2006,08,31,15,21,19.30
2006,08,31,15,22,19.30
2006,08,31,15,23,19.30
2006,08,31,15,24,19.30
2006,08,31,15,25,19.20
2006,08,31,15,26,19.10
2006,08,31,15,27,19.10
2006,08,31,15,28,19.10
2006,08,31,15,29,19.10
2006,08,31,15,30,19.10
2006,08,31,15,31,19.20
2006,08,31,15,32,19.30
2006,08,31,15,33,19.40
2006,08,31,15,34,19.50
2006,08,31,15,35,19.60
2006,08,31,15,36,19.70
2006,08,31,15,37,19.80
2006,08,31,15,38,19.80
2006,08,31,15,39,19.90
2006,08,31,15,40,19.80
2006,08,31,15,41,19.70
2006,08,31,15,42,19.50
2006,08,31,15,43,19.40
2006,08,31,15,44,19.30
2006,08,31,15,45,19.30
2006,08,31,15,46,19.20
2006,08,31,15,47,19.10
2006,08,31,15,48,19.10
2006,08,31,15,49,19.20
2006,08,31,15,50,19.20
2006,08,31,15,51,19.40
2006,08,31,15,52,19.40
2006,08,31,15,53,19.40
2006,08,31,15,54,19.40
2006,08,31,15,55,19.50
2006,08,31,15,56,19.60
2006,08,31,15,57,19.70
2006,08,31,15,58,19.70
2006,08,31,15,59,19.70
2006,08,31,16,00,19.80
2006,08,31,16,01,19.80
2006,08,31,16,02,19.80
2006,08,31,16,03,19.80
2006,08,31,16,04,19.80
2006,08,31,16,05,19.80
2006,08,31,16,06,19.70
2006,08,31,16,07,19.70
2006,08,31,16,08,19.70
2006,08,31,16,09,19.70
2006,08,31,16,10,19.70
2006,08,31,16,11,19.70
2006,08,31,16,12,19.80
2006,08,31,16,13,19.90
2006,08,31,16,14,19.90
2006,08,31,16,15,19.90
2006,08,31,16,16,19.90
2006,08,31,16,17,19.90
2006,08,31,16,18,19.90
2006,08,31,16,19,19.90
2006,08,31,16,20,20.00
2006,08,31,16,21,20.10
2006,08,31,16,22,20.20
2006,08,31,16,23,20.30
2006,08,31,16,24,20.30
2006,08,31,16,25,20.40
2006,08,31,16,26,20.40
2006,08,31,16,27,20.40
2006,08,31,16,28,20.50
2006,08,31,16,29,20.50
2006,08,31,16,30,20.50
2006,08,31,16,31,20.50
2006,08,31,16,32,20.50
2006,08,31,16,33,20.50
2006,08,31,16,34,20.50
2006,08,31,16,35,20.50
2006,08,31,16,36,20.50
2006,08,31,16,37,20.50
2006,08,31,16,38,20.50
2006,08,31,16,39,20.50
2006,08,31,16,40,20.50
2006,08,31,16,41,20.50
2006,08,31,16,42,20.40
2006,08,31,16,43,20.40
2006,08,31,16,44,20.40
2006,08,31,16,45,20.30
2006,08,31,16,46,20.30
2006,08,31,16,47,20.40
2006,08,31,16,48,20.40
2006,08,31,16,49,20.50
2006,08,31,16,50,20.50
2006,08,31,16,51,20.60
2006,08,31,16,52,20.70
2006,08,31,16,53,20.80
2006,08,31,16,54,20.80
2006,08,31,16,55,20.80
2006,08,31,16,56,20.80
2006,08,31,16,57,20.80
2006,08,31,16,58,20.90
2006,08,31,16,59,20.90
2006,08,31,17,00,21.00
2006,08,31,17,01,21.00
2006,08,31,17,02,21.00
2006,08,31,17,03,21.00
2006,08,31,17,04,21.00
2006,08,31,17,05,21.00
2006,08,31,17,06,21.00
2006,08,31,17,07,21.10
2006,08,31,17,08,21.10
2006,08,31,17,09,21.10
2006,08,31,17,10,21.20
2006,08,31,17,11,21.20
2006,08,31,17,12,21.30
2006,08,31,17,13,21.30
2006,08,31,17,14,21.30
2006,08,31,17,15,21.20
2006,08,31,17,16,21.10
2006,08,31,17,17,21.10
2006,08,31,17,18,21.10
2006,08,31,17,19,21.10
2006,08,31,17,20,21.10
2006,08,31,17,21,21.10
2006,08,31,17,22,21.10
2006,08,31,17,23,21.00
2006,08,31,17,24,21.00
2006,08,31,17,25,21.10
2006,08,31,17,26,21.10